[[{"header":{"parameterUnit":"m.s-1","parameterCategory":1,"la1":30.2991,"la2":30.254,"lo1":-89.0895,"lo2":-89.0444,"dx":0.0017,"dy":0.0017,"nx":28,"ny":28,"refTime":"2023-01-02T15:00:00:Z","depth":0,"parameterNumber":2,"parameterNumberName":"U-component_of_WINDS"},"data":[0,0,0,0,0,0,0,0,0,0,0,0,0,0,0,0,0,0,0,0,0,0,0,0,0,0,0,0,0,0,0,0,0,0,0,0,0,0,0,0,0,0,0,0,0,0,0,0,0,0,0,0,0,0,0,0,0,0,-3.196,-3.196,0,-3.2022,-3.2022,-3.2023,-3.2014,-3.2013,-3.2012,-3.2011,-3.2074,-3.2077,-3.2079,0,0,0,0,0,0,0,0,0,0,0,0,0,-3.1834,-3.1836,-3.196,-3.1961,-3.1961,-3.2022,-3.2022,-3.2023,-3.2014,-3.2013,-3.2012,-3.201,-3.2073,-3.2077,-3.208,0,0,0,0,0,0,0,0,0,0,0,0,0,-3.1891,-3.1837,-3.196,-3.1964,-3.1965,-3.2021,-3.2022,-3.2023,-3.2014,-3.2013,-3.2011,-3.201,-3.2072,-3.2076,-3.208,-3.2136,0,0,-3.2092,-3.2094,0,0,0,0,0,0,0,0,-3.1888,-3.1896,-3.1963,-3.1964,-3.1965,-3.2009,-3.2001,-3.2061,-3.2015,-3.1996,-3.2011,-3.2009,-3.2054,-3.2059,-3.2074,-3.2139,-3.2142,-3.2093,-3.2095,-3.2097,-3.2098,0,0,0,0,0,0,0,-3.1884,-3.1893,-3.1984,-3.1964,-3.1965,-3.1963,-3.1969,-3.2013,-3.2033,-3.1997,-3.1997,-3.2004,-3.2054,-3.207,-3.2076,-3.2143,-3.2093,-3.2096,-3.2099,-3.21,-3.2256,-3.2257,0,0,0,0,0,0,-3.1879,-3.189,-3.1982,-3.1986,-3.1922,-3.1967,-3.1974,-3.1996,-3.2032,-3.2036,-3.2005,-3.2004,-3.2064,-3.2071,-3.2078,-3.2144,-3.2097,-3.21,-3.2103,-3.2254,-3.2256,-3.2258,0,0,0,0,0,0,-3.1876,-3.1887,-3.198,-3.1938,-3.195,-3.197,-3.1996,-3.1998,-3.2014,-3.2038,-3.2042,-3.2018,-3.2063,-3.2072,-3.2121,-3.2147,-3.2102,-3.2106,-3.2252,-3.2255,-3.2257,-3.2279,0,0,0,0,0,0,-3.1873,-3.1886,-3.1908,-3.1939,-3.1952,-3.2022,-3.1997,-3.2001,-3.2021,-3.2019,-3.2051,-3.2055,-3.2063,-3.2116,-3.2125,-3.2151,-3.2109,-3.225,-3.2253,-3.2256,-3.2276,-3.2282,-3.2287,0,0,0,0,0,-3.1868,-3.1912,-3.1909,-3.192,-3.1979,-3.2024,-3.2031,-3.2039,-3.2023,-3.2045,-3.206,-3.2054,-3.2143,-3.2121,-3.2132,-3.2159,-3.2248,-3.2252,-3.2256,-3.2274,-3.2281,-3.2287,0,0,0,0,0,0,-3.1883,-3.1916,-3.1913,-3.1967,-3.1993,-3.2022,-3.2049,-3.2047,-3.2077,-3.2074,-3.2083,-3.209,-3.214,-3.2155,-3.213,-3.2215,-3.2193,-3.22,-3.2203,-3.221,-3.2215,-3.221,-3.2112,0,0,0,0,0,-3.1893,-3.1926,-3.1953,-3.1999,-3.2012,-3.2028,-3.2048,-3.2052,-3.2079,-3.209,-3.2109,-3.2135,-3.2168,-3.219,-3.2223,-3.2279,-3.2285,-3.2303,-3.2309,-3.2313,-3.2318,-3.2348,-3.2356,-3.2271,-3.2271,-3.2271,0,0,-3.1913,-3.1935,-3.1955,-3.2002,-3.2022,-3.2057,-3.2037,-3.2075,-3.21,-3.2095,-3.2142,-3.2158,-3.2188,-3.224,-3.2265,-3.2254,-3.2343,-3.2318,-3.2322,-3.2324,-3.2353,-3.2361,-3.2368,-3.2274,-3.2273,-3.2273,0,0,-3.1966,-3.1987,-3.2026,-3.2047,-3.2078,-3.2089,-3.2099,-3.2129,-3.2138,-3.2186,-3.2183,-3.2214,-3.2272,-3.2293,-3.2311,-3.2374,-3.2369,-3.2385,-3.2413,-3.2442,-3.2449,-3.2455,-3.2476,-3.2483,-3.239,-3.239,-3.239,0,-3.1987,-3.2038,-3.2047,-3.2085,-3.2105,-3.2103,-3.2143,-3.2163,-3.2202,-3.2217,-3.2205,-3.2278,-3.2298,-3.2355,-3.237,-3.2386,-3.2396,-3.238,-3.2447,-3.2453,-3.2459,-3.2479,-3.2487,-3.2391,-3.2391,-3.2391,-3.2391,0,-3.2062,-3.2098,-3.2126,-3.2165,-3.2189,-3.2227,-3.2242,-3.2265,-3.2267,-3.228,-3.2328,-3.2353,-3.2389,-3.2404,-3.2407,-3.2462,-3.2454,-3.2445,-3.2423,-3.2468,-3.2487,-3.2495,-3.2394,-3.2393,-3.2393,-3.2392,0,0,-3.2125,-3.2168,-3.2178,-3.2195,-3.2229,-3.2257,-3.2296,-3.2332,-3.2352,-3.238,-3.2412,-3.2462,-3.2453,-3.2474,-3.248,-3.2506,-3.2552,-3.2493,-3.2494,-3.2502,-3.2613,-3.2619,-3.2628,-3.255,-3.2552,-3.2553,-3.261,0,-3.218,-3.2248,-3.2257,-3.2318,-3.2351,-3.2349,-3.2383,-3.2408,-3.2421,-3.2451,-3.2466,-3.25,-3.2487,-3.2499,-3.2525,-3.2541,-3.2575,-3.2538,-3.258,-3.2581,-3.257,-3.2638,-3.2644,-3.2696,-3.2618,-3.2619,-3.262,0,-3.2254,-3.2283,-3.2347,-3.2376,-3.2391,-3.2421,-3.2454,-3.2484,-3.2512,-3.2519,-3.2543,-3.2545,-3.2586,-3.2564,-3.2619,-3.2594,-3.2612,-3.2622,-3.2625,-3.2627,-3.2602,-3.2641,-3.2714,-3.2721,-3.2632,-3.2631,-3.2631,0,-3.2291,-3.2347,-3.2392,-3.2407,-3.2443,-3.2464,-3.2481,-3.2507,-3.2528,-3.2558,-3.2572,-3.2607,-3.2625,-3.2652,-3.2663,-3.2647,-3.2718,-3.2697,-3.2724,-3.2724,-3.2737,-3.2736,-3.2812,-3.2753,-3.2752,-3.2752,-3.2752,0,-3.2351,-3.2389,-3.2409,-3.2437,-3.248,-3.2491,-3.2533,-3.2549,-3.2573,-3.2603,-3.2605,-3.2633,-3.2648,-3.2679,-3.2688,-3.2732,-3.2741,-3.2748,-3.2749,-3.2746,-3.2745,-3.2757,-3.2753,-3.2754,-3.2754,-3.2754,-3.2753,0,-3.2399,-3.2414,-3.2463,-3.2493,-3.2502,-3.2532,-3.2558,-3.2585,-3.2598,-3.2637,-3.2646,-3.2667,-3.2704,-3.2718,-3.2763,-3.277,-3.2819,-3.2819,-3.281,-3.281,-3.2836,-3.2832,-3.2921,-3.2932,-3.2866,-3.2867,-3.2867,0,-3.2435,-3.2465,-3.2498,-3.2519,-3.2535,-3.2568,-3.259,-3.2602,-3.2624,-3.2659,-3.2682,-3.2718,-3.2747,-3.2806,-3.2825,-3.286,-3.2859,-3.2888,-3.2864,-3.286,-3.2858,-3.2855,-3.2857,-3.2891,-3.2892,-3.2893,-3.2893,0,-3.2498,-3.2504,-3.2534,-3.2568,-3.2594,-3.2621,-3.2647,-3.2664,-3.268,-3.2705,-3.2743,-3.2766,-3.2811,-3.2847,-3.2883,-3.29,-3.2899,-3.2901,-3.2909,-3.2905,-3.2897,-3.29,-3.2819,-3.2898,-3.2898,-3.2897,-3.2897,-3.2897,-3.254,-3.2566,-3.2593,-3.2627,-3.2648,-3.2673,-3.2699,-3.2716,-3.2747,-3.2785,-3.2791,-3.283,-3.2858,-3.2906,-3.2924,-3.2956,-3.2948,-3.296,-3.2963,-3.2965,-3.2966,-3.2894,-3.2963,-3.2962,-3.2962,-3.2962,-3.2962,0,-3.2601,-3.2618,-3.265,-3.2686,-3.2713,-3.2711,-3.2741,-3.2763,-3.2798,-3.2824,-3.2853,-3.2896,-3.2931,-3.2953,-3.2989,-3.3009,-3.301,-3.3018,-3.3015,-3.3019,-3.2971,-3.296,-3.3017,-3.3017,-3.3017,-3.3017,-3.3017,-3.3017,-3.2635,-3.2678,-3.2688,-3.2742,-3.2759,-3.2798,-3.2814,-3.2837,-3.2858,-3.2905,-3.2934,-3.2949,-3.2974,-3.3011,-3.3043,-3.3049,-3.3061,-3.3069,-3.3074,-3.3029,-3.3023,-3.3017,-3.3007,-3.3072,-3.3072,-3.312,-3.312,-3.312]},{"header":{"parameterUnit":"m.s-1","parameterCategory":1,"la1":30.2991,"la2":30.254,"lo1":-89.0895,"lo2":-89.0444,"dx":0.0017,"dy":0.0017,"nx":28,"ny":28,"refTime":"2023-01-02T15:00:00:Z","depth":0,"parameterNumber":3,"parameterNumberName":"V-component_of_WINDS"},"data":[0,0,0,0,0,0,0,0,0,0,0,0,0,0,0,0,0,0,0,0,0,0,0,0,0,0,0,0,0,0,0,0,0,0,0,0,0,0,0,0,0,0,0,0,0,0,0,0,0,0,0,0,0,0,0,0,0,0,4.437,4.4371,0,4.4414,4.4415,4.4415,4.4407,4.4406,4.4405,4.4404,4.4446,4.4448,4.4449,0,0,0,0,0,0,0,0,0,0,0,0,0,4.4275,4.4277,4.437,4.4371,4.4371,4.4414,4.4415,4.4416,4.4407,4.4406,4.4405,4.4404,4.4445,4.4447,4.445,0,0,0,0,0,0,0,0,0,0,0,0,0,4.4317,4.4277,4.437,4.4372,4.4373,4.4414,4.4415,4.4416,4.4407,4.4406,4.4405,4.4403,4.4444,4.4447,4.445,4.4491,0,0,4.4458,4.446,0,0,0,0,0,0,0,0,4.4315,4.4321,4.4371,4.4372,4.4373,4.4404,4.4397,4.4441,4.4407,4.4394,4.4404,4.4403,4.4433,4.4436,4.4447,4.4493,4.4495,4.4459,4.446,4.4462,4.4462,0,0,0,0,0,0,0,4.4312,4.4319,4.4387,4.4372,4.4373,4.437,4.4375,4.4405,4.4419,4.4395,4.4394,4.44,4.4433,4.4444,4.4448,4.4495,4.4459,4.4461,4.4463,4.4464,4.458,4.4581,0,0,0,0,0,0,4.4309,4.4316,4.4386,4.4389,4.434,4.4373,4.4378,4.4395,4.4419,4.4421,4.4401,4.4399,4.444,4.4445,4.4449,4.4501,4.4462,4.4464,4.4466,4.4578,4.458,4.4581,0,0,0,0,0,0,4.4307,4.4315,4.4384,4.4353,4.4361,4.4376,4.4395,4.4396,4.4408,4.4424,4.4426,4.4411,4.444,4.4445,4.4482,4.4503,4.4465,4.4468,4.4577,4.4579,4.4581,4.4604,0,0,0,0,0,0,4.4304,4.4314,4.4331,4.4353,4.4363,4.4417,4.4396,4.4398,4.4414,4.4412,4.4433,4.4435,4.4439,4.4478,4.4484,4.4506,4.447,4.4575,4.4578,4.458,4.4602,4.4607,4.4611,0,0,0,0,0,4.4301,4.4334,4.4332,4.434,4.4384,4.4418,4.4423,4.4428,4.4415,4.4432,4.4442,4.4435,4.4499,4.4481,4.4489,4.4511,4.4574,4.4577,4.458,4.4599,4.4606,4.4611,0,0,0,0,0,0,4.4312,4.4337,4.4335,4.4376,4.4395,4.4416,4.4437,4.4434,4.4456,4.4453,4.4457,4.4462,4.4499,4.4508,4.4488,4.4554,4.4534,4.4539,4.4547,4.4553,4.4557,4.4555,4.4472,0,0,0,0,0,4.432,4.4346,4.4366,4.4401,4.4411,4.4422,4.4437,4.444,4.4459,4.4466,4.4479,4.4497,4.4521,4.4537,4.456,4.4602,4.4608,4.4622,4.4626,4.463,4.4635,4.466,4.4667,4.4592,4.4592,4.4592,0,0,4.4335,4.4352,4.4368,4.4404,4.4419,4.4446,4.4429,4.4458,4.4478,4.447,4.4506,4.4516,4.4536,4.4576,4.4594,4.4585,4.4657,4.4634,4.4637,4.464,4.4664,4.4671,4.4678,4.4594,4.4594,4.4593,0,0,4.4378,4.4393,4.4425,4.4441,4.4464,4.4472,4.448,4.4502,4.4509,4.4545,4.4541,4.4564,4.4605,4.4621,4.4634,4.4684,4.468,4.4691,4.4717,4.4742,4.4748,4.4753,4.4773,4.478,4.4696,4.4696,4.4696,0,4.4394,4.4436,4.4441,4.4472,4.4488,4.4484,4.4516,4.4531,4.456,4.4571,4.456,4.4614,4.4627,4.4672,4.4685,4.4695,4.4704,4.469,4.4747,4.4752,4.4757,4.4776,4.4784,4.4697,4.4697,4.4697,4.4697,0,4.4455,4.4485,4.4507,4.4539,4.4557,4.4588,4.4598,4.4616,4.4617,4.4625,4.4663,4.4679,4.4707,4.4717,4.4716,4.4762,4.4756,4.4746,4.4727,4.4766,4.4784,4.4791,4.4699,4.4699,4.4698,4.4698,0,0,4.4507,4.4542,4.455,4.4566,4.4592,4.4614,4.4645,4.4674,4.469,4.471,4.4737,4.4773,4.4765,4.478,4.4781,4.4803,4.4845,4.479,4.4791,4.4802,4.4898,4.4907,4.4916,4.4841,4.4842,4.4843,4.4897,0,4.4554,4.4611,4.4617,4.4668,4.4696,4.4693,4.472,4.4739,4.4748,4.4772,4.4781,4.4808,4.4794,4.4804,4.4824,4.4835,4.4864,4.4831,4.4866,4.4868,4.4864,4.4925,4.4934,4.4984,4.4904,4.4905,4.4906,0,4.4616,4.4642,4.4696,4.4721,4.4732,4.4757,4.4785,4.4808,4.4829,4.4835,4.4853,4.4852,4.4884,4.4863,4.4908,4.4885,4.49,4.4907,4.4909,4.4914,4.4891,4.4933,4.5,4.5008,4.4917,4.4916,4.4915,0,4.4652,4.4698,4.4738,4.475,4.4779,4.4797,4.481,4.483,4.4848,4.4871,4.4883,4.4909,4.4923,4.4944,4.495,4.4934,4.4995,4.4974,4.5001,4.5001,4.5016,4.5015,4.5088,4.5022,4.5022,4.5021,4.5021,0,4.4705,4.4739,4.4754,4.4779,4.4817,4.4823,4.486,4.4872,4.489,4.4917,4.4914,4.4938,4.4944,4.497,4.4974,4.5012,4.5018,4.5024,4.5025,4.5025,4.5025,4.5036,4.5034,4.5023,4.5023,4.5023,4.5022,0,4.4751,4.4763,4.4806,4.4831,4.4838,4.4865,4.4886,4.4909,4.4918,4.4951,4.4959,4.4973,4.5004,4.5012,4.5047,4.505,4.5095,4.5092,4.5089,4.5089,4.5117,4.5115,4.5201,4.5214,4.5137,4.5138,4.5139,0,4.4786,4.4812,4.4841,4.4859,4.4873,4.4902,4.4921,4.4928,4.4947,4.4975,4.4995,4.5025,4.505,4.5098,4.5111,4.5138,4.5137,4.5165,4.5141,4.5141,4.514,4.514,4.5143,4.517,4.5171,4.5172,4.5172,0,4.4846,4.4851,4.4879,4.491,4.4932,4.4956,4.4978,4.4993,4.5003,4.5025,4.5057,4.5076,4.5114,4.5144,4.5172,4.5184,4.5181,4.518,4.5188,4.519,4.5188,4.5192,4.5104,4.5178,4.5178,4.5177,4.5177,4.5177,4.489,4.4914,4.4939,4.497,4.4988,4.501,4.5034,4.5047,4.5074,4.5107,4.5108,4.5144,4.5165,4.5203,4.5217,4.5244,4.5235,4.5247,4.525,4.5253,4.5257,4.5182,4.5248,4.5248,4.5248,4.5248,4.5248,0,4.4952,4.4969,4.4997,4.5031,4.5055,4.5051,4.5076,4.5097,4.5128,4.5149,4.5175,4.5212,4.5242,4.5257,4.5287,4.5306,4.5305,4.5314,4.5313,4.5317,4.5261,4.5253,4.5314,4.5314,4.5314,4.5314,4.5314,4.5314,4.4988,4.503,4.5038,4.5089,4.5105,4.5141,4.5156,4.5176,4.5193,4.5236,4.5261,4.5272,4.5291,4.5322,4.5349,4.5353,4.5365,4.5375,4.5378,4.5327,4.532,4.5314,4.5306,4.5377,4.5377,4.5431,4.5432,4.5432]}]]